Regional Weather Roundup
Issued by NWS

Home | Current Version | Previous Version | Graphics & Text | Print | Product List | Glossary Off
Versions: 1 2 3 4 5 6 7 8 9 10 11 12 13 14 15 16 17 18 19 20 21 22 23 24 25 26 27 28 29 30 31 32 33 34 35 36 37 38 39 40 41 42 43 44 45 46 47 48 49 50

000
ASUS43 KLSX 280807
RWRMO
WEATHER SUMMARY FOR MISSOURI
NATIONAL WEATHER SERVICE SPRINGFIELD MO
300 AM CDT SUN MAY 28 2017

NOTE: "FAIR" INDICATES FEW OR NO CLOUDS BELOW 12,000 FEET WITH NO
       SIGNIFICANT WEATHER AND/OR OBSTRUCTIONS TO VISIBILITY.
       CURRENT SKY AND/OR WEATHER CONDITIONS ARE NOT AVAILABLE FOR
       CHILLICOTHE AND FARMINGTON.

MOZ001>031-035>038-043-044-053-054-280900-
...NORTHERN AND WESTERN MISSOURI...

CITY           SKY/WX    TMP DP  RH WIND       PRES   REMARKS
KANSAS CTY INT CLOUDY    60  58  92 N7        29.88F
KANSAS C DTWN  CLOUDY    64  60  87 N3        29.87F
LEE`S SUMMIT   CLOUDY    62  61  96 N12       29.87S
ST JOSEPH      CLEAR     60  59  96 NW7       29.90F
CHILLICOTHE      N/A     61  59  93 VRB5      29.86F
KIRKSVILLE     CLOUDY    60  59  96 NW10      29.81F

$$
MOZ066>068-077>081-088>096-101>105-280900-
...SOUTHWEST MISSOURI...

CITY           SKY/WX    TMP DP  RH WIND       PRES   REMARKS
SPRINGFIELD    CLOUDY    64  63  96 N9        29.79S
JOPLIN         CLOUDY    64  63  96 NW9       29.86R
BRANSON        CLOUDY    63  63 100 CALM      29.79F

$$
MOZ032>034-039>042-045>050-055>058-069>072-280900-
...CENTRAL MISSOURI...

CITY           SKY/WX    TMP DP  RH WIND       PRES   REMARKS
COLUMBIA       CLOUDY    59  59 100 W5        29.78F
JEFFERSON CITY CLOUDY    63  60  90 CALM      29.79F
ROLLA          FOG       58  58 100 S5        29.81S VSB 1/4
SEDALIA        CLOUDY    63  63 100 NW5       29.82F
WHITEMAN AFB   CLOUDY    62  62 100 NW7       29.82S
WARRENSBURG    CLOUDY    63  59  88 NW6       29.84R
OSAGE BEACH    FOG       61  61 100 CALM      29.81S VSB 1/2

$$
MOZ051-052-059>065-280900-
...EAST CENTRAL MISSOURI...

CITY           SKY/WX    TMP DP  RH WIND       PRES   REMARKS
ST LOUIS INTL  CLOUDY    66  61  84 CALM      29.75F
SPIRIT OF STL  CLOUDY    61  61 100 SW3       29.75F
ST CHARLES     CLOUDY    63  62  97 SW3       29.74F

$$
MOZ072>076-082>087-097>100-106>115-280900-
...SOUTH CENTRAL AND SOUTHEAST MISSOURI...

CITY           SKY/WX    TMP DP  RH WIND       PRES   REMARKS
CAPE GIRARDEAU MOCLDY    65  60  84 N8        29.76F
POPLAR BLUFF   LGT RAIN  64  63  96 S14G23      N/A

$$




USA.gov is the U.S. government's official web portal to all federal, state and local government web resources and services.